Regional Weather Roundup
Issued by NWS

Home | Current Version | Previous Version | Text Only | Print | Product List | Glossary Off
Versions: 1 2 3 4 5 6 7 8 9 10 11 12 13 14 15 16 17 18 19 20 21 22 23 24 25 26 27 28 29 30 31 32 33 34 35 36 37 38 39 40 41 42 43 44 45 46 47 48 49 50

000
ASUS43 KOAX 062302
RWRNE

WEATHER ROUNDUP FOR NEBRASKA
NATIONAL WEATHER SERVICE OMAHA NE
600 PM CDT WED MAY 06 2015

NOTES: SATELLITE DATA IS BEING USED TO AUGMENT CLOUD COVER ABOVE
       12000 FEET.
       "FAIR" INDICATES FEW OR NO CLOUDS BELOW 12,000 FEET WITH NO
       SIGNIFICANT WEATHER AND/OR OBSTRUCTIONS TO VISIBILITY.

  * THESE STATIONS DO NOT REPORT WEATHER SUCH AS RAIN...SNOW OR FOG.

NEZ001>004-019>022-054>056-070000-
NEBRASKA PANHANDLE

CITY           SKY/WX    TMP DP  RH WIND       PRES   REMARKS
SCOTTSBLUFF    LGT RAIN  58  55  90 N8        29.62S FOG
ALLIANCE       CLOUDY    59  53  80 S9        29.60S
CHADRON        PTSUNNY   64  53  67 W13       29.59R
SIDNEY         CLOUDY    58  55  90 S5        29.62S
$$

NEZ057>060-069>072-079>082-070000-
SOUTHWEST NEBRASKA

CITY           SKY/WX    TMP DP  RH WIND       PRES   REMARKS
NORTH PLATTE   MOSUNNY   66  54  65 S8        29.58S
IMPERIAL       PTSUNNY   62  54  74 S13       29.57F
MCCOOK         CLOUDY    70  53  54 S14       29.58R
$$

NEZ005>010-023>029-035>040-094-070000-
NORTH CENTRAL NEBRASKA

CITY           SKY/WX    TMP DP  RH WIND       PRES   REMARKS
VALENTINE      LGT RAIN  60  56  86 CALM      29.61F
AINSWORTH      PTSUNNY   66  57  71 S9        29.61S
BROKEN BOW     CLOUDY    64  57  78 SE23G39   29.60S THUNDER
ORD            LGT RAIN  62  56  80 S15G26    29.62S
$$

NEZ041-046>049-061>064-073>077-083>087-070000-
SOUTH CENTRAL NEBRASKA

CITY           SKY/WX    TMP DP  RH WIND       PRES   REMARKS
GRAND ISLAND   TSTM      64  62  93 SE26G37   29.61F
AURORA         TSTM      64  64 100 SE29G39   29.64F
HASTINGS       LGT RAIN  63  60  90 SE15G25   29.62F
$$

NEZ011>018-030>034-042>045-070000-
NORTHEAST NEBRASKA

CITY           SKY/WX    TMP DP  RH WIND       PRES   REMARKS
NORFOLK        PTSUNNY   68  61  78 SE22G32   29.68F
COLUMBUS *     PTSUNNY   66  59  77 SE17G29   29.71F
TEKAMAH        CLOUDY    70  62  76 SE22      29.76S
$$

NEZ050>053-065>068-078-088>093-070000-
SOUTHEAST NEBRASKA

CITY           SKY/WX    TMP DP  RH WIND       PRES   REMARKS
LINCOLN        CLOUDY    70  62  76 S22G35    29.73S
OMAHA EPPLEY   PTSUNNY   71  62  73 SE21G29   29.77F
FALLS CITY     CLOUDY    70  59  68 SE24G35   29.79F
$$

NEZ044-045-051>053-067-070000-
OMAHA AREA

CITY           SKY/WX    TMP DP  RH WIND       PRES   REMARKS
OMAHA EPPLEY   PTSUNNY   71  62  73 SE21G29   29.77F
$$


USA.gov is the U.S. government's official web portal to all federal, state and local government web resources and services.